Location: Cumbre Roja
(10.2766°N, 67.0675°W)
Time: 02:06:34
(UTC+00:00)

MOS 1 Rocket - Pass Details

Date: 18 November 2025
Orbit: 610 x 813 km, 97.4° (Epoch: 08 December)

Event Time Altitude Azimuth Distance (km) Brightness Sun altitude
Rises 22:26:10 0° 155° (SSE) 2,869 6.4 -6.3°
Reaches altitude 10° 22:28:26 10° 148° (SSE) 1,958 5.5 -6.9°
Maximum altitude 22:32:25 41° 78° (ENE) 881 3.4 -7.8°
Drops below altitude 10° 22:36:26 10° 7° (N) 1,974 5.4 -8.7°
Sets 22:38:43 0° 0° (N) 2,896 6.3 -9.3°
